Regional Weather Roundup
Issued by NWS

Home | Current Version | Previous Version | Graphics & Text | Print | Product List | Glossary On
Versions: 1 2 3 4 5 6 7 8 9 10 11 12 13 14 15 16 17 18 19 20 21 22 23 24 25 26 27 28 29 30 31 32 33 34 35 36 37 38 39 40 41 42 43 44 45 46 47 48 49 50
000
ASUS43 KTOP 202059
RWRKS

WEATHER ROUNDUP FOR KANSAS
NATIONAL WEATHER SERVICE GOODLAND KS
400 PM CDT MON APR 20 2015

NOTE:  "FAIR" INDICATES FEW OR NO CLOUDS BELOW 12,000 FEET WITH NO
SIGNIFICANT WEATHER AND/OR OBSTRUCTIONS TO VISIBILITY.

KSZ001>006-013>018-027>032-041>047-202200-
NORTHWEST KANSAS

CITY           SKY/WX    TMP DP  RH WIND       PRES   REMARKS
GOODLAND       CLOUDY    55  29  36 NW9       29.91F
HAYS           MOSUNNY   63  25  23 NW18G24   29.91F
HILL CITY      PTSUNNY   58  26  29 NW14G23   29.91F
RUSSELL        MOSUNNY   62  24  23 NW21G35   29.89F
$$

KSZ061>065-074>080-084>089-202200-
SOUTHWEST KANSAS

CITY           SKY/WX    TMP DP  RH WIND       PRES   REMARKS
DODGE CITY     MOSUNNY   59  23  25 W10       29.95F
ELKHART          N/A     64  30  27 S14         N/A
GARDEN CITY    MOSUNNY   56  24  29 VRB3      29.94F
GREAT BEND     SUNNY     61  30  31 W14G25    29.92F
LIBERAL        PTSUNNY   61  30  31 SE6       29.97F
$$

KSZ066>073-081>083-090>101-202200-
SOUTHEAST KANSAS

CITY           SKY/WX    TMP DP  RH WIND       PRES   REMARKS
CHANUTE        MOSUNNY   61  30  31 NW20G29   29.91F
COFFEYVILLE    MOSUNNY   62  33  33 NW15G24   29.92F
HUTCHINSON     SUNNY     62  28  27 W17       29.92F
MEDICINE LODGE   N/A     63  29  27 N6        29.94F
NEWTON         PTSUNNY   59  30  33 NW14G20   29.93F
PARSONS        MOSUNNY   61  33  35 NW16G25   29.93F
WICHITA INTL   MOSUNNY   64  29  26 NW20G25   29.92F
WICHITA JABRA  CLOUDY    60  31  33 NW9G23    29.92F
WICHITA MCCONL MOSUNNY   61  32  33 NW18G24   29.93F
WINFIELD       MOSUNNY   63  34  33 NW10G20   29.95F
$$

KSZ007>012-019>026-033>040-048>060-102>105-202200-
NORTHEAST KANSAS

CITY           SKY/WX    TMP DP  RH WIND       PRES   REMARKS
CONCORDIA      PTSUNNY   60  24  25 NW14G32   29.87F
EMPORIA        PTSUNNY   57  26  30 NW15G28   29.89F
LAWRENCE       MOSUNNY   59  23  25 W23G35    29.86S
MANHATTAN      PTSUNNY   61  25  25 NW13G26   29.88F
OLATHE IND     SUNNY     59  24  26 NW18G32   29.86S
OLATHE EXE     MOSUNNY   58  22  24 NW17G29   29.84S
SALINA         MOSUNNY   63  26  24 NW18      29.89F
TOPEKA BILLARD MOSUNNY   60  25  26 NW24G35   29.86F
TOPEKA FORBES  MOSUNNY   59  26  28 NW18G32   29.86S
$$


USA.gov is the U.S. government's official web portal to all federal, state and local government web resources and services.